Flight Track Log - Related Links

Times and Time Zones

All times are in EDT time to prevent confusion due to time zone crossing. See the CHQ2963 flight status page for this flight to view local times or setup timezone preferences in your user account.

Time Position Orientation Groundspeed Altitude Reporting Facility
EDT Latitude Longitude Course Direction KTS MPH feet Rate Location/Type
09:07AM 40.6500 -73.7667 316° Northwest 151 174 600  Level New York TRACON
09:08AM 40.6667 -73.7000 72° East 188 216 2,600 2,100 Climbing New York TRACON
09:09AM 40.7000 -73.6333 57° Northeast 248 285 4,800 2,350 Climbing New York TRACON
09:10AM 40.7333 -73.5500 62° Northeast 263 303 7,300 2,500 Climbing New York TRACON
09:11AM 40.8846 -74.1239 315° West  Level FlightAware Approximate
09:11AM 40.8000 -73.5500 360° North 267 307 9,800  Level New York TRACON
09:12AM 40.9513 -74.2111 316° Northwest  Level FlightAware Approximate
09:12AM 40.8667 -73.5667 349° North 278 320 11,400  Level New York TRACON
09:13AM 41.0186 -74.2977 316° Northwest  Level FlightAware Approximate
09:13AM 40.9333 -73.6333 323° Northwest 305 351 12,700  Level New York TRACON
09:15AM 41.0067 -73.7792 304° West 339 390 15,300 1,725 Climbing New York Center
09:16AM 41.0472 -73.8967 295° West 329 379 17,100 1,426 Climbing New York Center
09:17AM 41.0758 -74.0025 290° West 331 381 18,200 1,261 Climbing New York Center
09:18AM 41.1081 -74.1169 291° West 331 381 19,600 1,525 Climbing New York Center
09:19AM 41.1378 -74.2369 288° West 337 388 21,200 1,190 Climbing New York Center
09:20AM 41.1733 -74.3736 289° West 353 406 22,000 397 Climbing New York Center
09:21AM 41.2050 -74.4939 289° West 369 425 22,000  Level New York Center
09:22AM 41.2650 -74.6381 299° West 396 456 22,000  Level New York Center
09:23AM 41.3358 -74.7553 309° West 409 471 22,000  Level New York Center
09:24AM 41.4069 -74.8731 309° West 414 476 22,000  Level New York Center
09:25AM 41.4778 -74.9881 309° West 414 476 22,000  Level New York Center
09:26AM 41.5486 -75.1033 309° West 409 471 22,000  Level New York Center
09:27AM 41.6172 -75.2217 308° West 409 471 22,000  Level New York Center
09:28AM 41.6878 -75.3375 309° West 409 471 22,000  Level New York Center
09:29AM 41.7503 -75.4444 308° West 409 471 22,000  Level New York Center
09:30AM 41.8206 -75.5608 309° West 409 471 22,000 -150 Level New York Center
09:31AM 41.8886 -75.6800 308° West 409 471 21,700 -645 Descending New York Center
09:32AM 41.9567 -75.7908 310° West 409 471 20,700 -1,000 Descending New York Center
09:33AM 42.0228 -75.9047 308° West 404 465 19,700 -1,462 Descending New York Center
09:34AM 42.0867 -76.0131 308° West 386 444 17,800 -1,869 Descending New York Center
09:35AM 42.1550 -76.1108 313° West 373 429 15,900 -1,945 Descending New York Center
09:36AM 42.2972 -76.1211 357° North 370 426 13,100 -1,903 Descending Boston Center
09:37AM 42.3978 -76.1097 North 368 423 11,300 -976 Descending Boston Center
09:38AM 42.5167 -76.0964 North 360 414 11,100 -195 Descending Boston Center
09:39AM 42.6186 -76.0864 North 363 418 10,900 -590 Descending Boston Center
09:40AM 42.7064 -76.1064 350° North 316 364 9,900 -1,012 Descending Boston Center
09:41AM 42.7367 -76.1128 351° North 280 322 9,500 -1,355 Descending Boston Center
09:41AM 42.7819 -76.1231 351° North 279 321 8,500 -1,745 Descending Boston Center
09:42AM 42.8053 -76.1256 356° North 256 295 7,900 -1,672 Descending Boston Center
09:42AM 42.8556 -76.1353 352° North 271 312 6,800 -1,600 Descending Boston Center
09:43AM 42.8792 -76.1428 347° North 266 306 6,300 -1,672 Descending Boston Center
09:43AM 42.9275 -76.1533 351° North 266 306 5,100 -1,672 Descending Boston Center
09:44AM 42.9511 -76.1597 349° North 263 303 4,600 -1,475 Descending Boston Center
09:44AM 42.9978 -76.1722 349° North 262 302 3,600 -1,574 Descending Boston Center
09:45AM 43.0172 -76.1864 332° Northwest 250 288 3,000 -1,355 Descending Boston Center
09:45AM 43.0572 -76.2106 336° Northwest 256 295 2,200 -900 Descending Boston Center
09:46AM 43.0753 -76.2222 335° Northwest 205 236 2,100 -492 Descending Boston Center
09:46AM 43.1031 -76.2192 North 219 252 1,700 -716 Descending Boston Center
09:47AM 43.1053 -76.1967 82° East 146 168 1,300 -677 Descending Boston Center
09:47AM 43.1069 -76.1628 86° East 175 201 1,000 -400 Descending Boston Center
09:48AM 43.1089 -76.0989 88° East 162 186 600 -393 Descending Boston Center

Login

Don't have an account? Register now (free) for customized features, flight alerts, and more!